Regional Weather Roundup
Issued by NWS Sioux Falls, SD

Home | Current Version | Previous Version | Text Only | Print | Product List | Glossary On
Versions: 1 2 3 4 5 6 7 8 9 10 11 12 13 14 15 16 17 18 19 20 21 22 23 24 25 26 27 28 29 30 31 32 33 34 35 36 37 38 39 40 41 42 43 44 45 46 47 48 49 50
000
ASUS43 KFSD 221102
RWRFSD

WEATHER ROUNDUP FOR SE SOUTH DAKOTA/SW MINNESOTA/NW IOWA
NATIONAL WEATHER SERVICE SIOUX FALLS SD
600 AM CDT FRI AUG 22 2014

NOTE: "FAIR" INDICATES FEW OR NO CLOUDS BELOW 12,000 FEET WITH NO
SIGNIFICANT WEATHER AND OR OBSTRUCTIONS TO VISIBILITY.


SDZ038>040-050-052>070-221200-
SOUTHEAST SOUTH DAKOTA

CITY           SKY/WX    TMP DP  RH WIND       PRES   REMARKS
CHAMBERLAIN    CLEAR     64  64  97 CALM      29.95R
HURON          FOG       57  57 100 NW6       29.94R VSB 1/2
MADISON        FOG       61  61 100 CALM      29.95S VSB<1/4
MITCHELL       PTCLDY    64  63  96 CALM      29.94R FOG
SIOUX FALLS    PTCLDY    65  64  97 N3        29.93S
WINNER         FAIR      67  63  87 S3        29.96R
YANKTON        CLEAR     64  64 100 N3        29.92S
$$

MNZ071-072-080-081-089-090-097-098-221200-
SOUTHWEST MINNESOTA

CITY           SKY/WX    TMP DP  RH WIND       PRES   REMARKS
FAIRMONT       CLOUDY    70  64  83 MISG      29.90S VSB 1/4
JACKSON        FOG       70  68  94 CALM      29.92S VSB 1/4
LUVERNE        CLEAR     64  63  94 NW3       29.93S
MARSHALL       CLEAR     64  61  88 W3        29.92S
MONTEVIDEO     FOG       70  70 100 E3        29.94R VSB 1/4
PIPESTONE      CLEAR     66  64  94 CALM      29.95S FOG
REDWOOD FALLS  FOG       71  70  96 CALM      29.92R VSB 1/4
TRACY          CLEAR     67  65  96 CALM      29.94R FOG
WINDOM         PTCLDY    68  66  94 CALM      29.92S FOG
WORTHINGTON    CLEAR     64   9  11 N5        29.94S
$$

IAZ001>003-012>014-020>022-031-032-NEZ013-014-SDZ071-221200-
NORTHWEST IOWA

CITY           SKY/WX    TMP DP  RH WIND       PRES   REMARKS
CHEROKEE       PTCLDY    71  71 100 N5        29.90R
DENISON        MOCLDY    72  72 100 CALM      29.87S FOG
ESTHERVILLE    FOG       65  64  97 NW6       29.91R VSB 1/2
LE MARS        CLEAR     70  68  94 NW3       29.91S
ORANGE CITY    CLEAR     73  68  83 N3        29.92S
SHELDON        PTCLDY    64  64 100 CALM      29.92R
SIOUX CITY     PTCLDY    74  71  91 NW8       29.90R
SPENCER        PTCLDY    67  65  93 N7        29.91S
STORM LAKE     MOCLDY    72  72 100 NW3       29.91R FOG
$$

ABBREVIATIONS USED IN REMARKS
   TC - TEMPERATURE IN CELSIUS
  WCI - WIND CHILL INDEX
   HX - HEAT INDEX
  VSB - VISIBILITY




USA.gov is the U.S. government's official web portal to all federal, state and local government web resources and services.